sat.trackr.live / text

‹ back to catalog

UNKNOWN

NORAD 89395

UNKNOWN UNKNOWN UNKNOWN

§ Identity

Operator
Country
Launch date
Launch site
Launch vehicle
Mass (kg)
RCS (m²)

External: N2YO · Heavens-Above

§ Orbital elements

Epoch: 2026-09-18T07:58:56.193312Z

Period
119.84 min
Inclination
102.3997°
Eccentricity
0.0227073
Mean motion
12.01593058 rev/d
Perigee alt
1,490.9 km
Apogee alt
1,856.6 km
Semi-major
8,051.9 km
B*
4.7675e-3
RAAN
219.3545°
Arg perigee
10.4262°
Mean anomaly
149.4035°
Rev number
55,832

§ Raw data

UNKNOWN1 89395U          26261.33259483  .00000381  00000+0  47675-2 0  99902 89395 102.3997 219.3545 0227073  10.4262 149.4035 12.01593058558325

JSON: /api/v1/satellites/89395 · /tle

For live sub-satellite position, see the globe view (requires WebGL).

§ Visibility from observer

Set your observer location to see the next 7 days of passes ≥ 10°. The values pass through the URL so the page stays shareable.

No JS? Fill the form by hand. The geolocation button needs JavaScript.